DW8084 Weather Reports


Display with metric or nautical units.
time (UTC)temp
F
wind
direction
speed
MPH
gust
MPH
rain 1hr
in
rain 24hr
in
rain mn
in
humidity
%
barometer
mb
20260505170205 58 353 4.0 12.0 0.00 0.00 0.00 61
20260505165205 58 347 3.0 8.0 0.00 0.00 0.00 61
20260505164206 58 341 3.0 10.0 0.00 0.00 0.00 62
20260505163205 57 335 4.0 9.0 0.00 0.00 0.00 63
20260505162205 57 333 4.0 10.0 0.00 0.00 0.00 62
20260505161206 58 331 5.0 9.0 0.00 0.00 0.00 62
20260505160418 59 326 5.0 12.0 0.00 0.00 0.00 59
20260505153205 58 356 2.0 6.0 0.00 0.00 0.00 59
20260505152205 58 2 3.0 8.0 0.00 0.00 0.00 60
20260505151205 58 355 3.0 8.0 0.00 0.00 0.00 60
20260505150205 58 358 3.0 8.0 0.00 0.00 0.00 58
20260505140414 59 340 5.0 10.0 0.00 0.00 0.00 55
20260505130205 58 9 5.0 11.0 0.00 0.00 0.00 56
20260505124205 59 357 3.0 12.0 0.00 0.00 0.00 57
20260505123207 58 353 4.0 9.0 0.00 0.00 0.00 58
20260505122205 57 349 4.0 9.0 0.00 0.00 0.00 59
20260505121205 57 355 3.0 8.0 0.00 0.00 0.00 60
20260505120205 57 3 3.0 8.0 0.00 0.00 0.00 61
20260505115204 57 360 3.0 9.0 0.00 0.00 0.00 62
20260505114205 57 340 3.0 10.0 0.00 0.00 0.00 63
20260505113204 58 5 2.0 4.0 0.00 0.00 0.00 64
20260505112204 58 3 3.0 10.0 0.00 0.00 0.00 63
20260505111415 58 359 4.0 8.0 0.00 0.00 0.00 63
20260505110204 57 33 3.0 10.0 0.00 0.00 0.00 65
20260505102204 56 28 5.0 10.0 0.00 0.00 0.00 68
20260505101204 56 21 4.0 11.0 0.00 0.00 0.00 69
20260505100205 56 23 4.0 12.0 0.00 0.00 0.00 68
20260505095205 55 31 5.0 9.0 0.00 0.00 0.00 70
20260505094414 54 33 5.0 14.0 0.00 0.00 0.00 70
20260505093205 54 35 4.0 10.0 0.00 0.00 0.00 72
20260505092204 53 34 4.0 13.0 0.00 0.00 0.00 72
20260505091204 53 35 5.0 12.0 0.00 0.00 0.00 72
20260505090205 52 36 5.0 12.0 0.00 0.00 0.00 73
20260505085418 51 40 3.0 7.0 0.00 0.00 0.00 76
20260505084414 51 40 3.0 7.0 0.00 0.00 0.00 78
20260505083204 50 23 3.0 8.0 0.00 0.00 0.00 80
20260505082205 50 26 2.0 7.0 0.00 0.00 0.00 82
20260505081205 50 30 4.0 11.0 0.00 0.00 0.00 82
20260505080418 49 26 4.0 9.0 0.00 0.00 0.00 83
20260505075204 49 19 2.0 5.0 0.00 0.00 0.00 85
20260505074205 49 16 4.0 9.0 0.00 0.00 0.00 85
20260505073204 48 23 1.0 4.0 0.00 0.00 0.00 86
20260505072204 48 15 2.0 7.0 0.00 0.00 0.00 86
20260505071204 48 10 2.0 6.0 0.00 0.00 0.00 86
20260505070204 49 15 4.0 8.0 0.00 0.00 0.00 85
20260505065204 49 21 4.0 9.0 0.00 0.00 0.00 85
20260505064205 49 18 3.0 8.0 0.00 0.00 0.00 85
20260505063204 49 16 3.0 10.0 0.00 0.00 0.00 86
20260505062417 49 16 4.0 9.0 0.00 0.00 0.00 86
20260505061205 49 2 3.0 10.0 0.00 0.00 0.00 87
20260505060204 48 348 3.0 9.0 0.00 0.00 0.00 88
20260505055206 48 348 2.0 5.0 0.00 0.00 0.00 89
20260505054204 47 348 2.0 4.0 0.00 0.00 0.00 91
20260505053204 47 347 2.0 5.0 0.00 0.00 0.00 92
20260505052205 47 352 1.0 6.0 0.00 0.00 0.00 93
20260505051204 47 10 2.0 6.0 0.00 0.00 0.00 94
20260505050204 47 22 2.0 4.0 0.00 0.00 0.00 94
20260505041204 46 12 2.0 7.0 0.00 0.00 0.00 95
20260505040205 46 15 1.0 5.0 0.00 0.00 0.00 95
20260505035204 46 23 1.0 3.0 0.00 0.00 0.00 95
20260505034205 46 22 1.0 4.0 0.00 0.00 0.00 94
20260505033413 46 28 1.0 4.0 0.00 0.00 0.00 94
20260505032204 47 30 1.0 4.0 0.00 0.00 0.00 94
20260505031204 47 20 1.0 4.0 0.00 0.00 0.00 93
20260505030203 47 24 2.0 4.0 0.00 0.00 0.00 93
20260505025204 47 27 1.0 5.0 0.00 0.00 0.00 93
20260505024204 47 16 1.0 4.0 0.00 0.00 0.00 93
20260505023203 48 26 0.0 2.0 0.00 0.00 0.00 93
20260505022204 48 34 1.0 5.0 0.00 0.00 0.00 93
20260505021416 48 42 1.0 3.0 0.00 0.00 0.00 93
20260505020204 48 48 0.0 2.0 0.00 0.00 0.00 93
20260505015204 48 38 1.0 4.0 0.00 0.00 0.00 93
20260505014204 48 28 1.0 2.0 0.00 0.00 0.00 92
20260505013203 49 30 0.0 3.0 0.00 0.00 0.00 92
20260505012203 49 31 1.0 3.0 0.00 0.00 0.00 91
20260505011203 49 47 0.0 1.0 0.00 0.00 0.00 91
20260505010203 50 27 0.0 3.0 0.00 0.00 0.00 90
20260505005204 50 15 0.0 2.0 0.00 0.00 0.00 90
20260505004204 51 25 0.0 2.0 0.00 0.00 0.00 89
20260505003204 51 32 1.0 2.0 0.00 0.00 0.00 89
20260505002203 51 44 1.0 2.0 0.00 0.00 0.00 89
20260505001203 52 48 0.0 3.0 0.00 0.00 0.00 88
20260505000204 52 65 1.0 2.0 0.00 0.00 0.00 88
20260504235203 52 73 1.0 4.0 0.00 0.00 0.00 89
20260504234203 52 76 1.0 4.0 0.00 0.00 0.00 89
20260504233203 52 80 1.0 3.0 0.00 0.00 0.00 89
20260504232203 52 75 1.0 4.0 0.00 0.00 0.00 89
20260504231203 53 70 1.0 4.0 0.00 0.00 0.00 90
20260504230414 53 78 1.0 3.0 0.00 0.00 0.00 90
20260504225204 53 76 1.0 3.0 0.00 0.00 0.00 90
20260504224204 53 62 0.0 3.0 0.00 0.00 0.00 90
20260504223204 53 56 1.0 2.0 0.00 0.00 0.00 89
20260504222204 54 57 1.0 2.0 0.00 0.00 0.00 89
20260504221204 54 66 1.0 4.0 0.00 0.00 0.00 89
20260504220203 54 73 1.0 4.0 0.00 0.00 0.00 88
20260504215203 54 75 1.0 4.0 0.00 0.00 0.00 88
20260504214203 54 78 2.0 4.0 0.00 0.00 0.00 88
20260504213204 55 77 1.0 3.0 0.00 0.00 0.00 88
20260504212413 55 76 1.0 3.0 0.00 0.00 0.00 87
20260504211204 55 74 2.0 4.0 0.00 0.00 0.00 87
20260504210204 55 72 1.0 3.0 0.00 0.00 0.00 87
20260504205203 55 73 2.0 3.0 0.00 0.00 0.00 87
20260504204204 55 72 1.0 4.0 0.00 0.00 0.00 87
20260504203204 55 75 1.0 5.0 0.00 0.00 0.00 86
20260504202204 55 83 1.0 4.0 0.00 0.00 0.00 86
20260504201203 56 80 1.0 4.0 0.00 0.00 0.00 86
20260504200203 56 79 2.0 5.0 0.00 0.00 0.00 86
20260504195203 56 82 2.0 5.0 0.00 0.00 0.00 85
20260504194204 56 81 1.0 3.0 0.00 0.00 0.00 85
20260504193203 57 80 2.0 5.0 0.00 0.00 0.00 84
20260504192203 57 90 1.0 3.0 0.00 0.00 0.00 83
20260504191415 57 78 1.0 4.0 0.00 0.00 0.00 82
20260504190416 57 63 1.0 4.0 0.00 0.00 0.00 80
20260504185203 58 68 2.0 4.0 0.00 0.00 0.00 80
20260504184203 58 80 2.0 5.0 0.00 0.00 0.00 79
20260504183204 58 84 2.0 6.0 0.00 0.00 0.00 79
20260504182203 58 80 2.0 7.0 0.00 0.00 0.00 78
20260504181203 59 72 2.0 6.0 0.00 0.00 0.00 78
20260504180203 59 56 2.0 7.0 0.00 0.00 0.00 78
20260504175203 59 60 3.0 7.0 0.00 0.00 0.00 78
20260504174205 60 69 3.0 9.0 0.00 0.00 0.00 78
20260504173204 59 64 3.0 8.0 0.00 0.00 0.00 80
20260504172205 59 64 3.0 8.0 0.00 0.00 0.00 79
20260504171203 58 67 4.0 11.0 0.00 0.00 0.00 80